Location: Bradbury Park
(38.8579°N, 76.9241°W)
Time: 12:26:31
(UTC+00:00)

Daily predictions for brighter satellites

Satellite Brightness Start Highest point End
(mag) Time Altitude Azimuth Time Altitude Azimuth Time Altitude Azimuth
Cosmos 2084 Rocket 4.0 22:10:21 10° NNW 22:14:14 35° NE 22:18:06 10° ESE
Cosmos 1697 Rocket 2.7 22:10:55 10° SSW 22:16:28 71° ESE 22:22:04 10° NNE
Cosmos 405 Rocket 3.9 22:13:52 10° NNW 22:16:54 38° W 22:19:53 10° SSW
Cosmos 1867 4.1 22:13:41 10° NNW 22:18:46 39° NE 22:23:49 10° ESE
Cosmos 1825 Rocket 4.3 22:15:41 10° NNE 22:19:30 30° ENE 22:23:15 10° SE
Cosmos 2098 Rocket 3.5 22:15:34 10° SSW 22:19:31 65° W 22:24:13 10° N
NOSS 2-3 (E) 3.2 22:16:07 10° SSW 22:19:51 62° ESE 22:23:29 10° NE
NOSS 2-3 (D) 3.3 22:16:38 10° SSW 22:20:22 57° ESE 22:24:01 10° NE
Cosmos 1758 Rocket 3.9 22:18:39 10° NNW 22:22:55 67° W 22:27:08 10° S
ARIANE 5 R/B 2.8 22:18:16 10° SE 22:23:03 45° ENE 22:27:54 10° N
IRIDIUM 106 4.3 22:19:32 10° N 22:24:44 65° E 22:29:54 10° SSE
Meteor 1-28 Rocket 4.4 22:27:45 10° N 22:30:52 36° WNW 22:33:55 10° SW
UNK 3.8 22:27:15 10° N 22:31:51 81° WNW 22:36:22 10° SSW
Cosmos 1076 Rocket 4.3 22:32:41 10° NNE 22:36:26 29° ENE 22:40:11 10° SE
SMAP 3.0 22:32:00 10° SSE 22:36:39 82° ENE 22:41:19 10° N
COSMOS 2455 4.5 22:34:08 10° SE 22:37:07 14° ESE 22:39:11 12° E
ATLAS CENTAUR R/B 2.6 22:34:33 10° NW 22:37:27 33° WSW 22:40:15 10° S
Cosmos 2058 Rocket 4.1 22:34:42 10° SE 22:38:20 25° E 22:41:59 10° NE
Cosmos 1607 4.0 22:33:10 10° NNW 22:39:27 89° ENE 22:45:46 10° SSE
COSMO-SKYMED 1 3.8 22:38:13 12° NE 22:40:44 20° E 22:43:48 10° SE
SPOT 1/Viking Rocket 4.2 22:36:19 10° SE 22:40:51 32° ENE 22:45:25 10° N
BlueWalker 3 3.5 22:38:02 10° WNW 22:41:22 36° SW 22:44:42 10° SSE
Landsat 7 3.7 22:36:46 10° SSE 22:41:23 71° ENE 22:46:01 10° N
Gbstr 26 Del rocket 3.9 22:38:39 10° W 22:42:32 35° NNW 22:45:43 12° NE
USA 290 3.8 22:43:42 10° NW 22:46:47 40° WSW 22:49:49 10° S
Cosmos 1606 Rocket 3.7 22:44:25 10° S 22:48:48 81° W 22:53:15 10° N
IRS-P3 4.2 22:45:06 10° SSE 22:50:17 57° ENE 22:55:29 10° N
Meteor 1-20 Rocket 4.4 22:44:56 10° NNW 22:50:23 74° W 22:55:50 10° S
CZ-2D R/B 2.7 22:53:13 10° S 22:56:20 82° WSW 22:59:29 10° NNW
Hubble Space Telescope 3.0 22:55:26 10° SSW 22:57:30 14° S 22:59:35 10° SE
Cosmos 2297 Rocket 3.3 22:55:01 10° NW 23:00:26 48° WSW 23:05:49 10° S
AQUARIUS 4.0 22:56:22 10° SSE 23:00:46 83° ENE 23:05:11 10° N
Resurs 1-3 4.3 22:57:42 10° SE 23:01:23 29° ENE 23:05:04 10° N
SL-16 R/B 3.9 23:00:04 10° SE 23:01:52 13° ESE 23:01:52 13° ESE
Cosmos 1538 Rocket 4.4 22:58:00 10° N 23:03:00 41° ENE 23:08:00 10° SE
Cosmos 2266 Rocket 4.4 22:57:16 10° NNW 23:03:18 64° W 23:09:14 10° S
CZ-4C R/B 3.2 22:57:33 10° NW 23:05:03 86° WSW 23:14:04 10° SSE
Meteor 1-26 Rocket 4.3 23:02:31 10° SSE 23:07:42 47° E 23:12:48 10° NNE
Cosmos 1726 Rocket 4.2 23:07:58 10° SSW 23:12:33 61° W 23:17:07 10° N
Okean 1 3.4 23:09:14 10° SSE 23:12:38 40° E 23:13:11 37° ENE
Cosmos 1980 Rocket 2.3 23:14:21 10° SSW 23:20:01 79° WNW 23:25:04 13° NNE
Cosmos 2219 3.6 23:15:41 10° N 23:21:03 39° ENE 23:24:18 21° ESE
Cosmos 1553 Rocket 4.1 23:15:58 10° SSE 23:21:52 52° E 23:27:54 10° NNE
Spot 4 Rocket 4.0 23:17:48 10° SSE 23:22:45 55° ENE 23:27:44 10° N
Cosmos-2242 2.8 23:18:36 10° S 23:22:49 73° E 23:25:43 20° NNE
YAOGAN 1 2.5 23:20:16 10° SSE 23:24:23 53° ENE 23:28:32 10° N
Cosmos 1898 Rocket 3.3 23:22:17 10° SSW 23:27:26 83° ESE 23:30:53 21° NNE
Meteor 1-5 Rocket 4.5 23:25:25 10° NNW 23:30:45 67° W 23:36:14 10° S
SKYMED 2 4.0 23:27:51 10° N 23:32:09 63° WNW 23:36:26 10° SSW
SL-24 R/B - RUBIN 2 4.2 23:27:55 10° SSW 23:33:22 51° ESE 23:34:30 43° ENE
Cosmos 2369 3.6 23:27:46 10° SSW 23:33:28 75° ESE 23:36:34 28° NNE
Cosmos 2263 Rocket 2.1 23:29:25 10° NNW 23:35:07 77° ENE 23:40:48 10° SSE
Cosmos 372 Rocket 4.4 23:33:47 10° SSW 23:38:53 61° WNW 23:42:48 17° N
Helios 1A Rocket 3.0 23:46:12 51° SSW 23:46:12 51° SSW 23:48:48 10° SSW
Cosmos 1937 Rocket 3.3 23:40:40 10° SSW 23:45:51 88° ESE 23:47:52 38° NNE
Cosmos 858 Rocket 4.4 23:43:07 10° S 23:48:13 65° ESE 23:48:48 60° ENE
Cosmos 1244 Rocket 4.3 23:42:36 10° N 23:48:53 84° E 23:55:04 10° S
Cosmos 2227 Rocket 3.4 23:46:34 10° NW 23:51:51 42° WSW 23:57:07 10° S
